Flag for Greenland Weather past 2 weeks in Ilulissat, Greenland

Now
52 °F

Cool.


Feels Like: 51 °F
Forecast: N/A
Wind: 3 mph from Northwest

Location: Jacobshavn Lufthavn

Current Time: Jul 5, 2015 at 9:47:40 PM

Latest Report: Jul 5, 2015 at 8:50 PM


Visibility: N/A

Pressure: 30.24 "Hg

Humidity: 72%

Dew point: 43 °F

Location of IlulissatLocation

Historic Weather in Ilulissat — Graph

°F

Ilulissat temperature yesterday

Maximum temperature yesterday: 59 °F (at 4:50 PM)
Minimum temperature yesterday: 46 °F (at 2:50 AM)
Average temperature yesterday: 52 °F

Past Weeks' High & Low Weather Summary

 TemperatureHumidityPressure
High64 °F (Jun 28, 2:50 PM)87% (Jun 20, 8:50 PM)30.24 "Hg (Jun 20, 8:50 PM)
Low37 °F (Jun 20, 8:50 PM)28% (Jun 28, 2:50 PM)29.83 "Hg (Jun 26, 6:50 PM)
Average50 °F55%30.05 "Hg
* Reported Jun 20 7:50 PM — Jul 5 7:50 PM, Ilulissat, Weather by CustomWeather, © 2015

Note: Actual official high and low records may vary slightly from our data, if they occured in-between our weather recording intervals... More about our weather records

Advertising

Ilulissat weather history for previous 24 hours

 ConditionsComfort  
Time TempWeatherWind HumidityBarometerVisibility
7:50 PM
Sun, Jul 5
54 °FCool.3 mph54%30.24 "HgN/A
6:50 PM54 °FCool.6 mph51%30.24 "HgN/A
5:50 PM54 °FCool.5 mph51%30.24 "HgN/A
4:50 PM52 °FPassing clouds.6 mph58%30.24 "HgN/A
3:50 PM54 °FPassing clouds.6 mph54%30.24 "HgN/A
2:50 PM52 °FPassing clouds.8 mph54%30.24 "HgN/A
1:50 PM48 °FPassing clouds.8 mph66%30.24 "HgN/A
12:50 PM48 °FScattered clouds.8 mph62%30.24 "HgN/A
11:50 AM50 °FScattered clouds.9 mph58%30.24 "HgN/A
10:50 AM52 °FScattered clouds.6 mph54%30.24 "HgN/A
9:50 AM54 °FScattered clouds.6 mph51%30.21 "HgN/A
8:50 AM52 °FScattered clouds.5 mph58%30.21 "HgN/A
7:50 AM54 °FScattered clouds.3 mph54%30.21 "HgN/A
6:50 AM55 °FPassing clouds.7 mph51%30.18 "HgN/A
5:50 AM50 °FPassing clouds.5 mph58%30.18 "HgN/A
4:50 AM50 °FPassing clouds.2 mph54%30.15 "HgN/A
3:50 AM50 °FPassing clouds.2 mph54%30.15 "HgN/A
2:50 AM48 °FCool.No wind62%30.15 "HgN/A
1:50 AM48 °FCool.No wind62%30.12 "HgN/A
12:50 AM52 °FCool.No wind54%30.12 "HgN/A
11:50 PM
Sat, Jul 4
52 °FCool.No wind54%30.12 "HgN/A
10:50 PM52 °FCool.No wind50%30.12 "HgN/A
9:50 PM52 °FCool.2 mph50%30.12 "HgN/A
Weather by CustomWeather, © 2015

See weather overviewHow to use our weather pages